Location: Famechon
(49.7599°N, 2.0615°E)
Time: 12:16:59
(UTC+00:00)

SJ-6B - Pass Details

Date: 03 February 2023
Orbit: 502 x 570 km, 97.5° (Epoch: 22 March)

Event Time Altitude Azimuth Distance (km) Brightness Sun altitude
Exits shadow 19:27:12 33° 342° (NNW) 951 4.1 -25.6°
Drops below altitude 10° 19:29:29 10° 345° (NNW) 1,851 5.7 -25.9°
Sets 19:31:39 0° 347° (NNW) 2,762 6.6 -26.3°
